Vorticity
7 9 1 0 -13 38 23 5 2 3 14 4 11 6 3 3 2 1 9 9 10 8 7 7 7 6 6 6 6 6 8 11 15 17 20 22 24 25
6 12 5 12 -11 16 -6 26 5 -1 10 8 11 4 2 6 2 10 9 9 8 8 8 7 7 7 7 8 11 16 22 21 22 21 19 17 16 16
3 9 7 -3 10 3 2 24 3 7 9 8 -3 8 4 2 11 11 8 8 8 8 8 9 9 9 15 21 21 21 19 18 17 16 15 15 16 15
4 4 -3 7 22 6 16 8 9 3 17 5 11 4 4 9 10 8 7 8 7 10 10 11 16 20 26 20 17 12 12 13 14 15 15 16 14 16
3 11 27 -12 25 -11 45 -0 25 13 12 7 5 11 10 9 7 8 6 8 10 14 16 19 23 20 14 12 12 12 11 9 9 10 10 10 10 9
11 5 23 4 6 -2 24 17 17 10 4 7 6 8 8 8 7 7 8 10 17 19 22 19 15 15 13 8 8 10 10 10 11 11 11 12 13 14
1 13 25 13 26 15 11 13 10 4 6 11 8 7 8 7 9 8 11 13 21 23 13 16 12 11 10 10 11 10 10 12 12 13 13 13 12 10
12 15 14 24 22 12 12 4 4 12 12 6 7 7 9 10 9 10 14 16 25 15 11 8 11 10 9 12 13 12 14 13 11 9 9 9 10 9
16 17 17 10 7 5 3 13 12 7 9 8 7 9 8 10 12 15 23 21 13 11 9 7 9 10 12 15 14 13 12 12 13 12 12 12 12 11
16 13 6 3 10 15 8 7 9 8 6 9 10 11 12 13 16 22 19 14 8 6 10 7 10 12 13 15 16 16 17 15 13 14 14 14 12 11
4 11 11 7 6 5 4 6 6 9 10 11 11 13 16 23 23 18 11 7 7 5 15 9 13 12 14 15 18 16 17 16 16 15 13 13 15 17
6 5 5 4 6 9 7 8 8 7 9 11 18 23 26 23 11 11 8 7 7 8 12 8 11 11 12 12 16 11 16 13 11 11 12 11 10 10
5 5 5 6 7 5 6 6 10 15 18 25 31 28 17 11 11 9 7 6 8 11 10 9 11 10 10 10 15 15 14 15 13 15 13 10 11 13
4 4 4 6 8 9 13 19 23 28 35 31 18 12 13 11 8 8 7 9 11 8 8 7 7 7 8 10 10 13 14 19 18 14 13 13 12 13
6 7 8 12 19 24 26 26 31 25 13 10 13 12 11 10 10 9 8 9 11 8 8 7 4 4 4 6 7 10 9 16 16 12 10 13 16 18
11 16 21 26 26 24 25 18 10 11 13 11 11 10 10 10 8 9 8 9 7 5 6 7 7 7 9 11 8 10 8 12 14 16 13 16 14 12
23 26 23 19 19 19 10 12 13 10 9 8 9 10 10 9 9 10 9 9 9 11 11 10 11 11 10 13 12 12 12 15 17 14 13 14 18 17
23 20 18 20 11 11 12 8 8 8 8 9 9 10 10 10 10 10 9 9 10 11 12 11 11 11 12 17 16 17 17 15 11 15 17 16 23 23
17 16 16 10 13 10 8 7 7 7 9 9 9 10 10 10 9 8 7 7 9 12 12 12 11 10 13 16 19 14 17 14 13 16 17 14 19 20
16 12 10 12 7 7 7 7 7 8 9 9 9 10 9 9 7 5 4 3 5 10 11 12 11 12 14 14 10 13 12 14 12 13 11 18 13 0
11 11 10 8 7 7 6 6 7 8 10 10 10 10 9 8 6 3 3 4 3 7 11 12 11 15 17 17 14 13 16 14 13 10 9 9 -1 15
11 9 7 8 7 6 5 7 8 7 8 10 10 10 9 8 5 2 2 2 3 5 11 10 10 16 16 14 11 10 14 18 15 13 7 5 5 10
10 8 9 7 6 6 7 8 7 7 8 10 11 11 11 8 7 3 2 2 3 5 9 9 8 16 16 15 12 11 16 13 19 16 15 11 8 8
Height
3087 3088 3088 3088 3086 3084 3085 3082 3081 3081 3081 3080 3078 3077 3073 3071 3068 3064 3060 3056 3052 3049 3046 3043 3038 3035 3031 3027 3023 3019 3016 3013 3009 3006 3002 3000 2997 2995
3077 3078 3078 3076 3075 3074 3074 3073 3069 3070 3070 3069 3067 3065 3063 3060 3056 3052 3047 3042 3040 3036 3033 3029 3023 3019 3015 3010 3005 3002 2998 2994 2991 2988 2985 2982 2979 2978
3067 3067 3066 3064 3065 3061 3063 3062 3059 3058 3057 3056 3055 3053 3052 3048 3044 3039 3034 3030 3027 3023 3019 3013 3007 3003 2999 2993 2989 2985 2982 2978 2975 2972 2971 2969 2968 2966
3056 3057 3054 3049 3053 3052 3049 3050 3049 3046 3044 3043 3043 3041 3038 3035 3031 3026 3022 3018 3013 3010 3003 2996 2991 2987 2982 2978 2975 2971 2967 2964 2962 2959 2958 2957 2954 2954
3047 3046 3043 3042 3042 3040 3040 3037 3037 3035 3034 3033 3032 3028 3025 3021 3016 3013 3008 3005 3000 2994 2986 2980 2977 2973 2969 2966 2963 2959 2955 2952 2950 2947 2945 2943 2942 2941
3036 3036 3034 3031 3029 3028 3029 3029 3029 3025 3023 3021 3018 3016 3013 3008 3003 2998 2995 2991 2986 2980 2973 2969 2966 2962 2958 2954 2950 2947 2944 2941 2937 2934 2932 2930 2929 2927
3024 3025 3023 3023 3022 3020 3019 3019 3018 3015 3013 3010 3007 3004 3001 2995 2990 2985 2980 2974 2971 2967 2962 2960 2955 2952 2948 2944 2941 2937 2933 2928 2924 2921 2919 2918 2916 2914
3016 3016 3015 3015 3016 3014 3012 3010 3007 3004 3002 2998 2995 2992 2987 2982 2976 2971 2966 2962 2960 2958 2951 2951 2945 2944 2939 2936 2932 2927 2922 2917 2913 2910 2908 2905 2903 2901
3007 3007 3008 3007 3006 3004 3001 2999 2997 2994 2990 2985 2982 2978 2973 2968 2964 2959 2956 2951 2948 2945 2940 2940 2934 2933 2928 2926 2921 2916 2911 2905 2901 2898 2895 2893 2890 2887
3002 3002 3002 3001 2999 2997 2994 2991 2987 2983 2977 2974 2969 2964 2959 2955 2951 2948 2945 2942 2939 2937 2932 2926 2926 2922 2918 2916 2911 2906 2901 2895 2890 2886 2882 2878 2876 2873
2999 2997 2996 2992 2991 2988 2982 2979 2977 2973 2968 2963 2958 2953 2948 2944 2940 2938 2935 2932 2930 2930 2925 2915 2918 2910 2908 2907 2902 2897 2891 2886 2881 2876 2871 2867 2864 2860
2992 2988 2987 2985 2980 2976 2970 2966 2963 2960 2957 2952 2946 2941 2937 2935 2932 2930 2928 2926 2923 2920 2916 2908 2909 2900 2892 2898 2892 2886 2881 2876 2870 2866 2861 2856 2852 2847
2984 2980 2976 2972 2967 2963 2959 2956 2953 2949 2944 2940 2935 2932 2931 2929 2928 2926 2923 2920 2917 2914 2907 2897 2897 2892 2885 2876 2883 2877 2870 2867 2861 2857 2852 2847 2842 2837
2975 2970 2966 2962 2959 2955 2952 2948 2943 2938 2933 2930 2929 2928 2928 2926 2924 2922 2920 2917 2912 2906 2902 2894 2887 2882 2876 2871 2865 2867 2862 2856 2850 2846 2841 2838 2833 2828
2966 2962 2959 2954 2950 2946 2941 2937 2933 2929 2928 2926 2926 2925 2924 2923 2920 2919 2915 2911 2908 2902 2895 2889 2882 2876 2870 2862 2854 2853 2844 2847 2841 2834 2830 2826 2823 2818
2957 2952 2948 2944 2940 2937 2932 2930 2928 2927 2926 2925 2924 2922 2920 2917 2914 2911 2909 2906 2903 2900 2893 2885 2878 2870 2864 2858 2849 2844 2839 2829 2829 2825 2817 2816 2811 2808
2947 2942 2937 2934 2932 2931 2930 2928 2927 2926 2924 2921 2919 2917 2914 2912 2909 2906 2903 2899 2894 2890 2887 2879 2870 2863 2857 2849 2842 2838 2830 2825 2820 2814 2808 2805 2803 2798
2937 2935 2933 2932 2931 2929 2927 2926 2924 2922 2920 2918 2915 2913 2911 2908 2905 2901 2897 2892 2887 2882 2876 2869 2862 2855 2851 2847 2835 2831 2825 2815 2811 2807 2799 2792 2792 2790
2933 2931 2930 2929 2927 2926 2925 2923 2921 2919 2916 2914 2911 2908 2905 2902 2899 2895 2891 2886 2881 2875 2869 2861 2854 2844 2835 2830 2830 2820 2811 2808 2801 2797 2793 2788 2783 2781
2929 2927 2927 2925 2924 2923 2922 2921 2918 2916 2913 2909 2906 2903 2899 2897 2893 2889 2885 2879 2873 2868 2862 2856 2846 2838 2829 2821 2815 2816 2807 2798 2792 2788 2785 2782 2777 2774
2926 2926 2925 2924 2921 2920 2918 2917 2914 2911 2908 2905 2901 2898 2894 2891 2887 2883 2878 2873 2866 2860 2854 2848 2841 2832 2824 2816 2809 2804 2801 2794 2786 2781 2778 2773 2772 2769
2924 2923 2922 2921 2918 2916 2915 2913 2910 2906 2903 2899 2895 2891 2888 2884 2880 2876 2871 2865 2861 2854 2847 2839 2832 2824 2816 2807 2800 2794 2790 2787 2782 2775 2771 2766 2761 2759
2921 2920 2919 2918 2915 2913 2911 2908 2905 2901 2897 2894 2890 2885 2881 2878 2873 2869 2864 2859 2853 2846 2838 2828 2821 2815 2808 2801 2793 2787 2781 2776 2771 2768 2765 2758 2754 2751